Tampa, FL

7:08 PM EDT on April 25, 2018 (GMT -0400)
Tampa International

Weather History for KTPA - July, 2013

Change the Weather History Date:

Sunday, July 7, 2013

  Actual Average Record
Temperature  
Mean Temperature 85 °F 83 °F  
Max Temperature 92 °F 90 °F 97 °F (1995)
Min Temperature 77 °F 76 °F 67 °F (1947)
Degree Days  
Heating Degree Days 0 0  
Month to date heating degree days 0 0  
Since 1 June heating degree days 0 0  
Since 1 July heating degree days 0 0  
Cooling Degree Days 20 18  
Month to date cooling degree days 119 126  
Year to date cooling degree days 1617 1519  
Since 1 June cooling degree days 642 642  
Growing Degree Days 34 (Base 50)    
Moisture  
Dew Point 73 °F    
Average Humidity 69    
Maximum Humidity 88    
Minimum Humidity 49    
Precipitation  
Precipitation 0.03 in 0.25 in 4.46 in (1998)
Month to date precipitation 2.34 1.77  
Year to date precipitation 22.76 20.65  
Sea Level Pressure  
Sea Level Pressure 30.09 in    
Wind  
Wind Speed 5 mph (ENE)    
Max Wind Speed 15 mph    
Max Gust Speed 22 mph    
Visibility 10 miles    
Events Rain , Thunderstorm    
T = Trace of Precipitation, MM = Missing Value Source: NWS Daily Summary

Daily Weather History Graph

Daily Weather History Graph

Search for Another Location

Airport or City:

Astronomy

Jul. 07, 2013 Rise Set
Actual Time 6:39 AM EDT 8:30 PM EDT
Civil Twilight 6:13 AM EDT 8:56 PM EDT
Nautical Twilight 5:41 AM EDT 9:28 PM EDT
Astronomical Twilight 5:07 AM EDT 10:02 PM EDT
Moon 6:09 AM EDT (7/7) 7:59 PM EDT (7/7)
Length of Visible Light 14h 43m
Length of Day
13h 50m
Waning Crescent, 0% of the Moon is Illuminated
Jul 7
Waning Crescent
Jul 8
New
Jul 15
First Quarter
Jul 22
Full
Jul 29
Last Quarter

Hourly Weather History & Observations

Time (EDT) Temp. Heat Index Dew Point Humidity Pressure Visibility Wind Dir Wind Speed Gust Speed Precip Events Conditions
12:53 AM 81.0 °F 85.8 °F 73.0 °F 77% 30.12 in 10.0 mi ESE 5.8 mph - N/A   Scattered Clouds
1:53 AM 80.1 °F 84.2 °F 73.0 °F 79% 30.11 in 10.0 mi East 3.5 mph - N/A   Scattered Clouds
2:53 AM 79.0 °F - 73.0 °F 82% 30.09 in 10.0 mi Calm Calm - N/A   Partly Cloudy
3:53 AM 79.0 °F - 73.0 °F 82% 30.09 in 10.0 mi Calm Calm - N/A   Partly Cloudy
4:53 AM 78.1 °F - 73.0 °F 84% 30.08 in 10.0 mi Calm Calm - N/A   Partly Cloudy
5:53 AM 78.1 °F - 73.0 °F 84% 30.09 in 10.0 mi Calm Calm - N/A   Partly Cloudy
6:53 AM 77.0 °F - 73.0 °F 88% 30.09 in 10.0 mi ENE 4.6 mph - N/A   Scattered Clouds
7:53 AM 78.1 °F - 73.0 °F 84% 30.10 in 10.0 mi Variable 4.6 mph - N/A   Scattered Clouds
8:53 AM 81.0 °F 86.2 °F 73.9 °F 79% 30.12 in 10.0 mi Variable 5.8 mph - N/A   Scattered Clouds
9:53 AM 84.0 °F 91.2 °F 73.9 °F 72% 30.12 in 10.0 mi East 6.9 mph - N/A   Scattered Clouds
10:53 AM 84.9 °F 90.7 °F 72.0 °F 65% 30.13 in 10.0 mi ESE 6.9 mph - N/A   Mostly Cloudy
11:53 AM 87.1 °F 93.6 °F 72.0 °F 61% 30.12 in 10.0 mi SE 11.5 mph 18.4 mph N/A   Scattered Clouds
12:53 PM 89.1 °F 94.1 °F 70.0 °F 53% 30.11 in 10.0 mi East 8.1 mph - N/A   Scattered Clouds
1:53 PM 91.0 °F 95.6 °F 69.1 °F 48% 30.09 in 10.0 mi East 6.9 mph - N/A   Scattered Clouds
2:53 PM 91.0 °F 97.6 °F 71.1 °F 52% 30.08 in 10.0 mi Variable 5.8 mph - N/A   Mostly Cloudy
3:53 PM 88.0 °F 94.7 °F 72.0 °F 59% 30.06 in 9.0 mi East 15.0 mph 21.9 mph N/A   Mostly Cloudy
4:27 PM 82.4 °F 89.5 °F 75.2 °F 79% 30.06 in 10.0 mi NNE 5.8 mph - 0.03 in Thunderstorm Thunderstorm
4:44 PM 82.4 °F 89.5 °F 75.2 °F 79% 30.06 in 10.0 mi NE 8.1 mph - 0.03 in Rain Light Rain
4:53 PM 82.9 °F 90.2 °F 75.0 °F 77% 30.06 in 10.0 mi NE 6.9 mph - 0.03 in   Mostly Cloudy
5:53 PM 89.1 °F 97.0 °F 73.0 °F 59% 30.04 in 10.0 mi NE 5.8 mph - N/A   Mostly Cloudy
6:53 PM 90.0 °F 95.4 °F 70.0 °F 52% 30.03 in 10.0 mi ENE 6.9 mph - N/A   Scattered Clouds
7:53 PM 88.0 °F 92.9 °F 70.0 °F 55% 30.06 in 10.0 mi Variable 5.8 mph - N/A   Scattered Clouds
8:53 PM 86.0 °F 90.1 °F 69.1 °F 57% 30.08 in 10.0 mi ENE 3.5 mph - N/A   Partly Cloudy
9:53 PM 82.9 °F 90.2 °F 75.0 °F 77% 30.11 in 10.0 mi Calm Calm - N/A   Mostly Cloudy
10:53 PM 81.0 °F 86.7 °F 75.0 °F 82% 30.14 in 10.0 mi Calm Calm - N/A   Mostly Cloudy
11:53 PM 82.9 °F 88.0 °F 72.0 °F 69% 30.15 in 10.0 mi Calm Calm - N/A   Scattered Clouds